Location: Aalsum
(53.3404°N, 6.0062°E)
Time: 03:50:13
(UTC+00:00)

Lacrosse 4 Rocket - Pass Details

Date: 28 January 2023
Orbit: 536 x 608 km, 68.0° (Epoch: 24 March)

Event Time Altitude Azimuth Distance (km) Brightness Sun altitude
Rises 18:44:53 0° 307° (NW) 2,886 5.8 -22.7°
Reaches altitude 10° 18:48:33 10° 338° (NNW) 1,971 4.4 -23.3°
Maximum altitude 18:50:22 12° 2° (N) 1,821 3.9 -23.6°
Enters shadow 18:50:36 12° 5° (N) 1,823 3.9 -23.6°
